Weather in Vostochnoye

Russia / Sakhalin District     48°16′27″N   142°37′33″E
В апреле 2022 года жителям России запретили посещать сайт meteo.paraplan.net по решению Генеральной прокуратуры. Аудитория сайта уменьшилась в 10 раз. Владельцы сайта не видят смысла в поддержке погодного сервера в таких условиях. Сайт будет закрыт в октябре.
temp.,
°C
wind,
m/s
gust,
m/s
humid.,
%
clouds,
%
prec.,
mm/h
press.,
hPa
HPBL,
m
4 october, tue
tue423:00+16sw10177996 0.1 1007289
02:00+16sw101777100 0.0 1004301
05:00+15sw81489100 0.9 1002275
08:00+14sw71196100 6.8 998237
11:00+10wnw4784100 11.9 1000477
14:00+10nw6878100 2.0 1000741
17:00+10nw896917 2.1 10011050
20:00+8nw8107282 0.0 1003985
5 october, wed
wed523:00+7nw7107330 0.1 1004797
02:00+6nw797298 0.0 10051064
05:00+6nnw8107114 0.0 10071004
08:00+6nw8107231 0.0 10091062
11:00+6nw89585 0.0 10111183
14:00+8wnw684178 0.0 10122134
17:00+7w684618 0.0 10131942
20:00+7sw685182 0.0 10141559
6 october, thu
thu623:00+6wsw576196 0.1 1014962
02:00+6wnw465993 0.0 1013720
05:00+5wnw3561100 0.1 1013792
08:00+5wnw486295 0.4 1012917
11:00+7wnw9115232 0.6 10131830
14:00+7w9114699 0.0 10132223
17:00+7w7104610 0.0 10141880
20:00+6w475736 0.0 1016988
7 october, fri
fri723:00+7wsw585460 0.0 10181425
02:00+6w59573 0.0 1018775
05:00+6w595792 0.0 1019744
08:00+6w58555 0.0 1020748
11:00+9w710465 0.0 10202039
14:00+9w910455 0.0 10191778
17:00+9w89460 0.0 10201488
20:00+8wsw57531 0.0 1022610
8 october, sat
sat823:00+8sw35576 0.0 1022225
02:00+8wnw115876 0.0 1022239
05:00+7nw33620 0.0 1023171
08:00+7w33604 0.0 1024139
11:00+9wsw34533 0.0 1025459
14:00+10sw344792 0.0 10241052
17:00+11w44485 0.0 10241431
20:00+9w33585 0.0 1026312